Tracking 31027 objects as of 19-Jul-2025
HD Live streaming from Space Station
objects crossing your sky now

STARLINK-31348

Track STARLINK-31348 now!
10-day predictions
STARLINK-31348 is classified as:


NORAD ID: 59172
Int'l Code: 2024-044W
Perigee: 489.1 km
Apogee: 491.1 km
Inclination: 43.0 °
Period: 94.3 minutes
Semi major axis: 6861 km
RCS: Unknown
Launch date: March 4, 2024
Source: United States (US)
Launch site: AIR FORCE EASTERN TEST RANGE (AFETR)
Your satellite tracking list
Your tracking list is empty




NASA's NSSDC Master Catalog

Two Line Element Set (TLE):
1 59172U 24044W   25199.58540992  .00016462  00000-0  60605-3 0  9995
2 59172  42.9997 302.3034 0001439 276.4710  83.5978 15.27598496 78309
Source of the keplerian elements: AFSPC